Regional Weather Roundup
Issued by NWS Glasgow, MT

Home | Current Version | Previous Version | Text Only | Print | Product List | Glossary On
Versions: 1 2 3 4 5 6 7 8 9 10 11 12 13 14 15 16 17 18 19 20 21 22 23 24 25 26 27
000
ASUS45 KGGW 211515
RWRGGW
HOURLY REGIONAL WEATHER ROUNDUP FOR NORTHEAST MONTANA
NATIONAL WEATHER SERVICE GLASGOW MONTANA
800 AM MST TUE FEB 21 2017

NOTE: "FAIR" INDICATES FEW OR NO CLOUDS BELOW 12,000 FEET WITH NO
SIGNIFICANT WEATHER AND/OR OBSTRUCTIONS TO VISISBILITY.

NORTHEAST MONTANA


CITY           SKY/WX    TMP DP  RH WIND       PRES   REMARKS
GLASGOW        MOCLDY    36  32  85 CALM      29.65F
PLENTYWOOD       N/A     33  32  96 S2          N/A
WOLF POINT     PTCLDY    26  24  92 SE5       29.66F
JORDAN           N/A     38  32  79 NW3       29.67F
WINNETT          N/A     41  34  76 NE2         N/A
SIDNEY         PTCLDY    30  28  92 CALM      29.69R
GLENDIVE       CLOUDY    37  32  82 S5        29.71R
MALTA            N/A     32  32 100 SE1         N/A
SCOBEY           N/A     36  27  70 CALM      29.63

FORT PECK REPORTS


CITY           SKY/WX    TMP DP  RH WIND       PRES   REMARKS
FORT PECK        N/A     38  33  82 SW5         N/A
THE PINES        N/A     40  32  73 CALM        N/A

SOUTHEAST MONTANA


CITY           SKY/WX    TMP DP  RH WIND       PRES   REMARKS
BILLINGS       CLOUDY    44  32  62 W9        29.70R
MILES CITY     LGT RAIN  41  35  79 S5        29.73R
BAKER          MOSUNNY   37  30  75 NW3       29.72S
LIVINGSTON     CLOUDY    43  34  70 SW15      29.70R

CENTRAL MONTANA


CITY           SKY/WX    TMP DP  RH WIND       PRES   REMARKS
HAVRE          CLOUDY    36  31  82 W8        29.64R
LEWISTOWN      CLOUDY    36  30  79 E3        29.66R
GREAT FALLS    CLOUDY    37  31  78 S5        29.61F
CUT BANK       MOCLDY    32  24  72 N10       29.61S
HELENA         CLOUDY    33  32  96 W5        29.64F
BUTTE          LGT RAIN  38  31  76 SE9       29.69R
BOZEMAN        PTCLDY    41  34  76 CALM      29.70F

WESTERN MONTANA


CITY           SKY/WX    TMP DP  RH WIND       PRES   REMARKS
MISSOULA       LGT RAIN  33  33 100 CALM      29.67R FOG
KALISPELL      NOT AVBL

NORTH DAKOTA


CITY           SKY/WX    TMP DP  RH WIND       PRES   REMARKS
WILLISTON      SUNNY     34  29  82 CALM      29.66S
DICKINSON      SUNNY     39  30  70 SW6       29.68R
MINOT          FLURRIES  34  30  85 S5        29.64S
BISMARCK       MOSUNNY   33  30  88 SE5       29.70R

SOUTHERN SASKATCHEWAN


CITY           SKY/WX    TMP DP  RH WIND       PRES   REMARKS
REGINA         MOCLDY    32  30  93 NE12      29.64R
MOOSE JAW      MOCLDY    32  32 100 E6        29.65R FOG
ESTEVAN        PTCLDY    28  28 100 S7        29.64R
SWIFT CURRENT  CLOUDY    30  30 100 N10       29.63R FOG





USA.gov is the U.S. government's official web portal to all federal, state and local government web resources and services.